Simultaneous Nadir Overpasses (SNOs) Predictions

Prediction of SNOs between NOAA-21 and LANDSAT-8 Satellite Orbit:

Table of predicted SNOs for the next 14.0 days since TLE Epoch: 6/29/2024
Index Date (NOAA-21) Time (NOAA-21) Lat,Lon (NOAA-21) SZA (NOAA-21 ) Date (LANDSAT-8) Time (LANDSAT-8) Lat,Lon (LANDSAT-8) SZA (LANDSAT-8 ) Distance(km) Time Diff (sec)
1 06/29/2024 14:02:51 70.51, -35.17 47.34 06/29/2024 14:04:01 70.41, -34.27 47.19 35.33 70
2 06/29/2024 14:53:26 -70.07, 132.85 133.14 06/29/2024 14:53:35 -70.07, 132.87 133.13 1.21 9
3 06/29/2024 15:44:10 69.94, -59.64 46.73 06/29/2024 15:43:03 69.92, -59.70 46.73 2.68 67
4 07/02/2024 06:19:41 70.10, 81.24 47.09 07/02/2024 06:20:35 70.13, 81.20 47.11 3.09 54
5 07/02/2024 07:10:23 -70.02,-111.31 133.00 07/02/2024 07:10:05 -70.01,-111.33 133.00 0.99 18
6 07/02/2024 08:00:53 69.15, 57.27 46.10 07/02/2024 07:59:45 69.19, 55.20 46.23 81.81 68
7 07/04/2024 22:36:38 70.07,-162.94 47.29 07/04/2024 22:37:04 70.07,-162.98 47.29 1.61 26
8 07/04/2024 23:27:20 -69.98, 4.51 132.80 07/04/2024 23:26:34 -69.96, 4.49 132.81 2.34 46
9 07/07/2024 14:02:51 -70.22, 145.29 132.28 07/07/2024 14:04:03 -70.20, 145.44 132.31 6.12 72
10 07/07/2024 14:53:34 70.05, -47.14 47.56 07/07/2024 14:53:31 70.04, -47.14 47.54 1.69 3
11 07/07/2024 15:44:14 -69.85, 120.48 132.65 07/07/2024 15:43:02 -69.87, 120.26 132.62 8.63 72
12 07/10/2024 06:19:46 -70.10, -98.76 132.07 07/10/2024 06:20:31 -70.12, -98.77 132.06 2.40 45
13 07/10/2024 07:10:30 69.99, 68.72 47.82 07/10/2024 07:09:58 70.01, 68.71 47.84 2.23 32
14 07/12/2024 21:46:11 70.73,-151.30 48.96 07/12/2024 21:47:20 70.60,-149.80 48.77 56.80 69
15 07/12/2024 22:36:42 -70.04, 17.10 131.76 07/12/2024 22:36:58 -70.05, 17.03 131.75 2.79 16
16 07/12/2024 23:27:26 69.94,-175.43 48.14 07/12/2024 23:26:25 69.94,-175.48 48.15 1.93 61



Historial Predications of SNOs between NOAA-21 and LANDSAT-8
